| time (UTC) | temp C | wind direction | speed KPH | gust KPH | rain 1hr cm | rain 24hr cm | rain mn cm | humidity % | barometer mb |
| 20260905041538 | 30 | 261 | 20.9 | 40.2 | 0.00 | 0.00 | 0.00 | 20 | 1006.6 |
| 20260905040033 | 30 | 298 | 20.9 | 37.0 | 0.00 | 0.00 | 0.00 | 21 | 1006.6 |
| 20260905034532 | 31 | 331 | 14.5 | 33.8 | 0.00 | 0.00 | 0.00 | 21 | 1006.5 |
| 20260905033032 | 32 | 305 | 20.9 | 30.6 | 0.00 | 0.00 | 0.00 | 19 | 1006.2 |
| 20260905031536 | 31 | 286 | 12.9 | 29.0 | 0.00 | 0.00 | 0.00 | 20 | 1005.8 |
| 20260905030036 | 32 | 320 | 20.9 | 30.6 | 0.00 | 0.00 | 0.00 | 21 | 1005.6 |
| 20260905024534 | 31 | 302 | 20.9 | 32.2 | 0.00 | 0.00 | 0.00 | 21 | 1005.6 |
| 20260905023034 | 32 | 294 | 16.1 | 25.7 | 0.00 | 0.00 | 0.00 | 22 | 1005.6 |
| 20260905021536 | 33 | 319 | 14.5 | 25.7 | 0.00 | 0.00 | 0.00 | 21 | 1005.6 |
| 20260905020031 | 33 | 319 | 20.9 | 37.0 | 0.00 | 0.00 | 0.00 | 20 | 1005.2 |
| 20260905014531 | 33 | 309 | 22.5 | 33.8 | 0.00 | 0.00 | 0.00 | 20 | 1005.1 |
| 20260905013030 | 34 | 302 | 24.1 | 35.4 | 0.00 | 0.00 | 0.00 | 20 | 1005.1 |
| 20260905011529 | 35 | 264 | 19.3 | 37.0 | 0.00 | 0.00 | 0.00 | 19 | 1005.2 |
| 20260905010030 | 35 | 308 | 17.7 | 35.4 | 0.00 | 0.00 | 0.00 | 19 | 1005.2 |
| 20260905004530 | 36 | 298 | 20.9 | 38.6 | 0.00 | 0.00 | 0.00 | 17 | 1005.1 |
| 20260905003029 | 37 | 288 | 17.7 | 37.0 | 0.00 | 0.00 | 0.00 | 16 | 1005.0 |
| 20260905001528 | 37 | 287 | 20.9 | 32.2 | 0.00 | 0.00 | 0.00 | 15 | 1004.8 |
| 20260905000030 | 38 | 277 | 17.7 | 29.0 | 0.00 | 0.00 | 0.00 | 14 | 1004.9 |
| 20260904234539 | 38 | 273 | 16.1 | 30.6 | 0.00 | 0.00 | 0.00 | 13 | 1004.9 |
| 20260904233043 | 38 | 224 | 17.7 | 32.2 | 0.00 | 0.00 | 0.00 | 12 | 1004.9 |
| 20260904231526 | 39 | 286 | 17.7 | 27.4 | 0.00 | 0.00 | 0.00 | 12 | 1005.2 |
| 20260904230033 | 39 | 317 | 19.3 | 30.6 | 0.00 | 0.00 | 0.00 | 11 | 1005.3 |
| 20260904224540 | 39 | 288 | 17.7 | 29.0 | 0.00 | 0.00 | 0.00 | 11 | 1005.3 |
| 20260904223037 | 40 | 272 | 11.3 | 22.5 | 0.00 | 0.00 | 0.00 | 10 | 1005.4 |
| 20260904221526 | 40 | 298 | 3.2 | 17.7 | 0.00 | 0.00 | 0.00 | 9 | 1005.4 |
| 20260904220020 | 40 | 21 | 4.8 | 14.5 | 0.00 | 0.00 | 0.00 | 8 | 1005.7 |
| 20260904214534 | 39 | 225 | 1.6 | 14.5 | 0.00 | 0.00 | 0.00 | 8 | 1005.6 |
| 20260904213014 | 39 | 107 | 3.2 | 19.3 | 0.00 | 0.00 | 0.00 | 8 | 1005.7 |
| 20260904211513 | 38 | 102 | 4.8 | 19.3 | 0.00 | 0.00 | 0.00 | 8 | 1005.7 |
| 20260904210008 | 38 | 110 | 8.0 | 17.7 | 0.00 | 0.00 | 0.00 | 8 | 1006.0 |
| 20260904204506 | 38 | 111 | 6.4 | 17.7 | 0.00 | 0.00 | 0.00 | 9 | 1006.0 |
| 20260904203005 | 37 | 120 | 12.9 | 22.5 | 0.00 | 0.00 | 0.00 | 9 | 1006.2 |
| 20260904201604 | 37 | 150 | 4.8 | 16.1 | 0.00 | 0.00 | 0.00 | 9 | 1006.5 |
| 20260904194603 | 37 | 105 | 11.3 | 22.5 | 0.00 | 0.00 | 0.00 | 9 | 1007.0 |
| 20260904193054 | 36 | 161 | 12.9 | 17.7 | 0.00 | 0.00 | 0.00 | 9 | 1007.2 |
| 20260904191552 | 36 | 179 | 11.3 | 19.3 | 0.00 | 0.00 | 0.00 | 9 | 1007.5 |
| 20260904190049 | 36 | 92 | 8.0 | 22.5 | 0.00 | 0.00 | 0.00 | 9 | 1007.8 |
| 20260904184600 | 36 | 166 | 6.4 | 19.3 | 0.00 | 0.00 | 0.00 | 10 | 1008.0 |
| 20260904183044 | 35 | 150 | 9.7 | 14.5 | 0.00 | 0.00 | 0.00 | 10 | 1008.1 |
| 20260904181542 | 35 | 112 | 11.3 | 14.5 | 0.00 | 0.00 | 0.00 | 10 | 1008.3 |
| 20260904180054 | 35 | 98 | 9.7 | 19.3 | 0.00 | 0.00 | 0.00 | 10 | 1008.2 |
| 20260904174538 | 35 | 134 | 8.0 | 17.7 | 0.00 | 0.00 | 0.00 | 10 | 1008.4 |
| 20260904173031 | 34 | 168 | 4.8 | 14.5 | 0.00 | 0.00 | 0.00 | 10 | 1008.4 |
| 20260904171528 | 34 | 159 | 8.0 | 11.3 | 0.00 | 0.00 | 0.00 | 10 | 1008.2 |
| 20260904170023 | 33 | 124 | 4.8 | 8.0 | 0.00 | 0.00 | 0.00 | 10 | 1008.2 |
| 20260904164520 | 32 | 138 | 4.8 | 9.7 | 0.00 | 0.00 | 0.00 | 11 | 1008.3 |
| 20260904163015 | 32 | 129 | 3.2 | 9.7 | 0.00 | 0.00 | 0.00 | 12 | 1008.0 |
| 20260904161510 | 31 | 96 | 1.6 | 6.4 | 0.00 | 0.00 | 0.00 | 13 | 1007.9 |
| 20260904160009 | 31 | 136 | 3.2 | 9.7 | 0.00 | 0.00 | 0.00 | 14 | 1008.0 |
| 20260904154504 | 30 | 119 | 0.0 | 6.4 | 0.00 | 0.00 | 0.00 | 14 | 1007.8 |
| 20260904153107 | 30 | 64 | 1.6 | 4.8 | 0.00 | 0.00 | 0.00 | 15 | 1007.9 |
| 20260904151556 | 28 | 59 | 1.6 | 6.4 | 0.00 | 0.00 | 0.00 | 15 | 1007.5 |
| 20260904150054 | 27 | 130 | 0.0 | 0.0 | 0.00 | 0.00 | 0.00 | 16 | 1007.7 |
| 20260904144550 | 26 | 133 | 3.2 | 8.0 | 0.00 | 0.00 | 0.00 | 17 | 1007.6 |
| 20260904143047 | 26 | 149 | 1.6 | 8.0 | 0.00 | 0.00 | 0.00 | 17 | 1007.4 |
| 20260904141604 | 26 | 183 | 0.0 | 3.2 | 0.00 | 0.00 | 0.00 | 17 | 1007.2 |
| 20260904140040 | 26 | 294 | 0.0 | 6.4 | 0.00 | 0.00 | 0.00 | 14 | 1006.9 |
| 20260904134536 | 26 | 331 | 0.0 | 1.6 | 0.00 | 0.00 | 0.00 | 15 | 1006.8 |
| 20260904133032 | 26 | 307 | 0.0 | 3.2 | 0.00 | 0.00 | 0.00 | 16 | 1006.6 |
| 20260904131530 | 26 | 266 | 6.4 | 14.5 | 0.00 | 0.00 | 0.00 | 16 | 1006.4 |
| 20260904130028 | 26 | 302 | 9.7 | 20.9 | 0.00 | 0.00 | 0.00 | 16 | 1006.2 |
| 20260904124525 | 27 | 338 | 11.3 | 22.5 | 0.00 | 0.00 | 0.00 | 16 | 1006.0 |
| 20260904123023 | 27 | 269 | 16.1 | 30.6 | 0.00 | 0.00 | 0.00 | 15 | 1005.7 |
| 20260904121522 | 27 | 291 | 19.3 | 32.2 | 0.00 | 0.00 | 0.00 | 16 | 1005.4 |
| 20260904120019 | 27 | 275 | 17.7 | 32.2 | 0.00 | 0.00 | 0.00 | 17 | 1005.6 |
| 20260904114533 | 27 | 290 | 16.1 | 30.6 | 0.00 | 0.00 | 0.00 | 18 | 1005.6 |
| 20260904113012 | 27 | 293 | 19.3 | 30.6 | 0.00 | 0.00 | 0.00 | 19 | 1005.5 |
| 20260904111509 | 27 | 292 | 17.7 | 30.6 | 0.00 | 0.00 | 0.00 | 20 | 1005.5 |
| 20260904110020 | 27 | 273 | 19.3 | 30.6 | 0.00 | 0.00 | 0.00 | 21 | 1005.3 |
| 20260904104506 | 27 | 311 | 17.7 | 32.2 | 0.00 | 0.00 | 0.00 | 21 | 1005.1 |
| 20260904103007 | 28 | 282 | 12.9 | 30.6 | 0.00 | 0.00 | 0.00 | 21 | 1005.3 |
| 20260904101512 | 28 | 258 | 16.1 | 27.4 | 0.00 | 0.00 | 0.00 | 20 | 1005.1 |
| 20260904100003 | 28 | 292 | 14.5 | 30.6 | 0.00 | 0.00 | 0.00 | 20 | 1005.0 |
| 20260904094501 | 28 | 256 | 17.7 | 32.2 | 0.00 | 0.00 | 0.00 | 19 | 1005.0 |
| 20260904093100 | 28 | 288 | 16.1 | 35.4 | 0.00 | 0.00 | 0.00 | 18 | 1005.1 |
| 20260904091558 | 28 | 310 | 20.9 | 35.4 | 0.00 | 0.00 | 0.00 | 18 | 1004.8 |
| 20260904090057 | 28 | 314 | 22.5 | 38.6 | 0.00 | 0.00 | 0.00 | 18 | 1004.9 |
| 20260904084558 | 28 | 244 | 16.1 | 25.7 | 0.00 | 0.00 | 0.00 | 19 | 1005.0 |
| 20260904083057 | 28 | 323 | 14.5 | 27.4 | 0.00 | 0.00 | 0.00 | 18 | 1004.9 |
| 20260904081551 | 28 | 298 | 19.3 | 27.4 | 0.00 | 0.00 | 0.00 | 17 | 1004.9 |
| 20260904080049 | 29 | 265 | 17.7 | 29.0 | 0.00 | 0.00 | 0.00 | 16 | 1005.1 |
| 20260904074557 | 28 | 303 | 16.1 | 27.4 | 0.00 | 0.00 | 0.00 | 16 | 1005.1 |
| 20260904073048 | 28 | 329 | 12.9 | 25.7 | 0.00 | 0.00 | 0.00 | 17 | 1005.4 |
| 20260904071546 | 28 | 294 | 16.1 | 30.6 | 0.00 | 0.00 | 0.00 | 19 | 1005.3 |
| 20260904070043 | 28 | 304 | 20.9 | 29.0 | 0.00 | 0.00 | 0.00 | 19 | 1005.1 |
| 20260904064542 | 29 | 323 | 19.3 | 32.2 | 0.00 | 0.00 | 0.00 | 18 | 1005.2 |
| 20260904063054 | 29 | 309 | 19.3 | 30.6 | 0.00 | 0.00 | 0.00 | 18 | 1005.2 |
| 20260904061542 | 29 | 284 | 20.9 | 32.2 | 0.00 | 0.00 | 0.00 | 19 | 1005.2 |
| 20260904060105 | 29 | 331 | 20.9 | 33.8 | 0.00 | 0.00 | 0.00 | 20 | 1005.1 |
| 20260904054541 | 29 | 298 | 24.1 | 35.4 | 0.00 | 0.00 | 0.00 | 21 | 1005.2 |
| 20260904053042 | 29 | 299 | 24.1 | 35.4 | 0.00 | 0.00 | 0.00 | 21 | 1005.1 |
| 20260904051545 | 29 | 288 | 25.7 | 40.2 | 0.00 | 0.00 | 0.00 | 23 | 1005.2 |
| 20260904050043 | 29 | 300 | 29.0 | 38.6 | 0.00 | 0.00 | 0.00 | 23 | 1005.1 |
| 20260904044549 | 30 | 303 | 27.4 | 37.0 | 0.00 | 0.00 | 0.00 | 21 | 1005.2 |
| 20260904043043 | 30 | 299 | 20.9 | 33.8 | 0.00 | 0.00 | 0.00 | 23 | 1005.3 |